Wind_Speed
14 14 14 15 17 18 20 22 20 19 20 22 27 27 24 22 23 25 24 21 20 18 18 22 23 23 22 21 20 20 17 16 17 16 15 15 16 14 12 9 5 4 9 8 6 7 6 5 8 8 8 8 8 8 9 9 9 8 7 5 4 3 2
15 13 11 11 13 15 17 20 19 20 20 21 24 23 21 21 21 23 22 20 20 19 18 20 22 23 22 22 22 21 19 18 19 19 16 14 16 15 14 12 7 6 8 6 6 8 5 4 6 7 8 7 7 8 9 9 8 8 7 5 5 5 4
14 12 10 10 13 15 15 16 18 20 20 20 20 18 19 22 22 21 20 19 20 20 19 20 21 22 22 21 20 20 20 19 20 21 17 14 15 14 16 15 11 9 9 6 7 8 5 4 5 7 10 10 9 9 9 8 8 8 7 6 6 6 5
10 9 10 11 13 14 14 14 16 17 18 17 17 16 18 22 22 20 18 19 21 19 19 20 21 22 21 19 18 18 19 20 22 22 17 15 14 14 16 18 14 12 11 8 9 10 8 5 4 6 10 11 10 9 9 9 8 8 7 7 7 7 6
8 8 10 11 13 13 13 13 13 15 15 13 13 15 16 18 20 19 17 20 22 20 19 20 22 23 20 18 18 17 16 20 23 20 16 16 15 14 16 19 18 14 13 10 8 9 9 6 5 6 9 11 10 8 9 9 9 8 8 7 7 8 8
10 11 11 12 13 14 13 11 12 14 15 14 14 14 14 15 16 15 15 18 21 22 22 22 24 24 23 22 20 17 16 19 20 18 16 16 17 16 16 18 19 17 14 11 9 8 8 7 6 6 8 10 9 9 9 10 10 9 8 8 8 9 9
11 10 10 11 12 14 13 11 13 14 15 17 17 15 15 18 18 17 17 18 19 21 23 23 24 25 26 26 21 18 17 18 21 21 18 17 18 17 16 18 20 18 15 14 11 9 9 9 7 7 9 9 8 9 10 10 11 10 8 9 9 9 10
11 10 9 10 11 12 12 11 13 13 12 15 18 17 16 18 21 21 21 22 21 22 23 24 25 25 25 23 21 20 18 17 22 25 22 19 18 18 19 20 19 18 18 18 15 11 11 10 8 9 11 8 7 8 8 9 11 11 10 10 10 10 10
10 10 9 9 10 11 11 12 13 13 11 12 16 19 18 17 19 21 22 24 24 23 23 23 24 24 24 22 21 20 19 17 20 23 22 21 20 20 20 18 16 17 19 21 17 12 12 10 9 10 11 10 7 6 7 7 9 11 11 11 11 12 12
8 8 9 9 10 12 12 12 12 12 10 10 13 17 18 16 18 20 22 23 23 23 23 21 20 20 22 24 21 18 18 18 19 21 21 20 19 20 21 18 16 17 18 20 18 15 13 12 10 10 11 11 9 6 6 6 8 10 13 14 12 12 15
7 8 8 8 9 10 11 11 11 11 11 11 12 15 16 17 18 20 22 23 23 23 23 22 21 19 19 22 22 19 18 17 18 20 20 18 17 19 21 19 18 18 17 19 19 16 15 13 12 12 11 11 10 8 7 6 6 9 12 14 12 11 15
8 7 8 8 9 10 10 10 11 12 13 13 13 13 14 17 19 19 21 23 24 24 25 25 25 23 21 21 19 18 17 16 19 19 17 18 18 18 20 20 18 17 17 18 18 17 16 15 13 12 11 11 11 10 9 6 5 7 9 12 13 11 14
10 8 8 8 9 9 9 10 11 12 12 13 12 13 14 16 18 18 19 23 25 25 24 24 25 25 23 21 18 16 17 18 19 17 15 17 17 16 19 20 18 17 16 16 16 15 16 16 14 13 11 12 11 11 11 9 6 5 7 10 11 12 15
12 10 9 9 9 9 9 10 11 12 12 13 13 13 14 14 16 17 18 21 25 25 24 24 25 23 20 20 19 16 17 19 19 15 14 17 17 17 20 19 16 17 17 16 14 13 14 16 16 14 12 11 12 12 11 10 8 5 7 9 10 12 16
14 13 10 8 9 9 9 9 10 12 12 13 12 12 13 13 14 15 17 20 23 25 25 25 24 23 22 21 19 16 17 21 20 16 15 18 19 20 20 17 15 17 17 15 14 13 14 16 15 14 13 12 12 12 13 11 9 7 6 8 10 12 16
17 16 13 10 10 10 10 10 10 12 13 13 12 13 14 14 14 15 16 21 25 26 26 25 23 24 24 23 20 18 18 19 20 19 17 18 19 20 20 17 16 17 16 15 14 14 15 16 15 13 13 14 13 12 13 12 10 8 6 8 10 11 14
20 18 16 14 13 12 12 11 12 12 12 12 12 12 15 16 15 15 17 21 26 27 27 26 24 23 23 22 21 21 20 19 20 21 20 19 19 20 20 17 17 18 16 14 14 14 15 16 15 14 13 14 13 12 13 13 11 9 8 8 9 10 12
21 21 20 18 16 15 14 13 13 12 12 12 12 11 14 16 15 16 18 21 26 28 27 26 24 23 22 21 22 22 21 21 22 21 19 19 20 21 20 18 18 19 17 15 15 14 14 14 14 14 14 14 13 12 13 14 12 10 10 9 9 10 12
20 20 21 21 19 17 17 15 14 13 13 13 12 12 14 16 16 17 19 21 25 28 28 26 24 24 23 21 21 22 22 22 21 20 19 19 19 21 21 18 18 19 19 17 17 15 14 14 14 14 15 15 13 13 13 14 13 12 12 10 9 10 12
21 21 21 22 20 19 18 17 15 15 14 14 14 13 14 16 17 18 18 19 23 28 29 27 25 25 24 22 22 22 22 21 21 20 20 19 19 19 20 19 18 20 20 18 18 17 16 15 15 15 16 15 14 13 13 13 14 13 13 11 10 9 11
22 23 22 22 21 20 18 17 16 16 15 14 14 14 14 16 17 18 18 18 21 28 30 27 27 26 24 23 22 22 22 21 21 20 19 18 18 19 19 19 19 20 19 18 18 18 17 16 14 14 15 16 15 14 13 12 13 13 13 12 11 9 9
21 22 23 24 25 23 20 18 17 16 16 16 16 15 15 18 18 19 19 18 21 28 29 28 28 27 25 24 23 23 22 21 20 19 17 16 17 18 18 16 16 18 18 17 16 16 17 16 15 14 15 17 17 15 13 12 13 14 13 13 12 10 10
21 23 23 24 26 26 22 20 18 17 17 18 18 16 16 18 19 20 20 18 21 28 29 28 28 27 25 24 23 23 22 21 19 18 19 18 15 14 15 13 13 15 15 14 14 14 14 14 15 14 15 16 17 15 14 13 14 15 14 14 13 10 8
23 24 23 23 24 26 25 21 18 18 17 19 20 18 17 19 20 21 20 18 23 29 29 27 28 26 24 23 22 22 22 20 19 19 19 19 16 14 14 14 14 14 14 13 13 13 13 13 14 15 16 16 16 16 15 14 14 15 14 14 11 11 12
24 24 24 24 23 25 26 23 19 17 17 19 21 20 20 22 22 22 21 21 26 30 28 27 28 26 24 23 21 21 21 20 20 20 19 20 19 17 16 16 15 14 13 13 13 13 13 13 14 15 16 16 16 17 18 17 16 15 14 13 10 13 18
24 25 25 24 23 23 24 24 22 20 18 17 17 19 22 24 23 21 23 25 28 28 27 27 28 27 25 22 20 20 20 20 20 20 20 20 20 19 18 17 16 15 13 13 12 13 13 14 14 15 15 16 17 18 19 20 19 17 15 13 12 14 18
23 25 25 24 23 22 21 21 21 21 19 16 13 11 14 20 22 21 21 24 25 26 26 26 27 27 25 22 20 20 20 20 20 20 20 21 20 19 19 19 18 16 14 13 13 13 14 15 15 15 15 15 15 16 18 19 19 17 15 11 10 13 16
24 25 25 24 23 23 21 20 20 20 19 16 12 8 5 9 15 17 18 20 21 21 22 24 25 26 24 22 21 20 20 19 20 20 21 22 21 21 20 20 19 17 15 14 13 13 14 16 16 15 14 12 11 12 13 14 15 16 16 12 10 12 14
23 24 25 25 24 23 22 21 20 18 17 16 13 9 6 2 4 9 12 16 17 16 15 17 21 22 22 22 22 21 20 19 19 20 21 22 22 22 21 20 18 17 16 15 13 12 13 15 16 16 15 14 12 10 8 7 8 11 13 13 11 10 10
22 23 24 25 25 24 22 21 19 18 17 17 16 14 11 8 5 3 7 9 10 10 10 12 15 17 20 22 22 22 21 20 20 20 21 22 23 22 21 20 18 17 17 16 14 13 13 15 17 19 20 20 20 20 19 16 14 13 14 16 16 15 14
20 22 23 23 23 23 22 20 19 17 17 18 17 17 16 15 13 11 10 9 9 9 8 9 12 16 18 20 22 23 23 23 22 22 22 22 23 23 22 20 20 19 18 17 17 16 16 17 20 23 24 24 25 25 24 23 22 22 21 21 20 19 17
20 21 23 23 22 22 22 21 20 19 20 20 20 20 20 20 20 20 18 17 16 15 14 12 12 15 17 19 21 23 24 25 25 24 23 23 22 22 22 21 21 21 20 20 21 21 19 17 18 20 21 22 25 27 25 24 24 23 22 21 19 18 16
24 21 22 23 23 23 22 22 23 25 26 26 26 24 24 24 25 25 23 24 24 21 19 16 13 12 14 17 21 24 26 27 28 26 24 23 22 21 21 21 21 22 23 23 23 22 18 14 15 17 19 20 24 26 25 23 22 21 21 21 20 19 18
27 25 24 24 24 25 24 24 26 28 29 30 31 29 26 26 28 28 26 28 32 29 23 18 15 12 11 14 18 21 23 26 28 29 27 24 23 22 20 20 19 20 22 23 22 19 17 15 16 18 19 20 22 25 25 24 23 22 22 22 20 19 17
26 26 26 26 26 26 24 25 28 29 30 32 33 33 29 26 27 28 27 31 37 36 29 23 19 15 12 12 13 16 19 22 25 29 28 26 25 23 21 19 18 16 17 19 19 17 16 16 17 18 19 20 23 25 26 25 23 20 19 17 16 15 14
24 24 25 26 27 27 25 24 26 26 27 29 31 31 29 26 27 29 32 35 37 36 33 30 27 22 17 13 12 13 17 19 22 27 29 28 26 25 23 21 19 16 15 16 17 16 16 16 17 17 19 21 23 25 25 24 21 17 15 14 13 13 12
23 23 23 23 24 26 27 25 22 21 21 23 24 26 27 27 28 30 32 34 33 32 33 32 31 28 23 18 17 16 17 19 21 26 30 31 29 28 27 25 22 19 18 18 19 19 19 18 19 20 21 22 23 22 22 21 20 17 16 14 13 12 11
Wind_Direction
240 241 243 243 248 255 259 260 260 252 242 240 243 240 231 223 223 225 221 215 213 209 211 218 217 215 218 218 214 214 216 210 201 194 184 185 192 197 201 203 205 176 174 187 204 196 187 178 181 188 191 192 197 196 198 201 199 204 208 199 185 172 163
254 253 254 255 260 265 264 264 263 256 248 242 241 241 235 228 225 224 220 212 207 205 209 220 221 214 213 218 214 210 213 211 208 205 193 190 197 196 194 196 193 172 177 200 207 202 211 186 178 186 181 184 196 198 200 198 193 197 201 197 182 169 167
259 261 264 265 266 268 265 265 260 251 245 240 238 240 242 239 230 223 220 211 206 208 211 220 225 218 213 215 211 209 212 209 210 213 208 201 201 200 195 190 185 179 183 198 205 207 214 197 192 187 180 186 191 191 199 198 191 193 197 195 181 171 169
262 265 265 263 265 264 257 261 262 252 245 242 238 235 239 241 234 224 220 214 211 212 209 216 228 226 217 213 211 213 212 211 214 215 213 208 204 203 200 195 192 191 193 196 201 204 205 196 187 176 181 192 193 188 195 197 193 193 195 193 184 177 172
271 269 263 262 265 259 246 249 261 261 260 259 250 238 233 236 234 227 222 218 217 215 209 216 229 228 221 215 211 210 209 213 216 215 212 209 205 202 205 206 205 203 206 208 203 203 208 202 182 171 177 187 193 189 188 194 196 197 197 192 186 183 176
280 277 273 272 270 262 247 236 238 249 259 262 260 250 236 231 229 224 223 222 220 219 217 221 226 226 225 221 214 206 206 212 215 213 212 210 208 207 208 210 211 212 214 217 214 212 211 199 185 177 172 180 192 186 183 193 196 195 198 196 191 188 183
287 284 280 280 274 263 254 236 223 231 244 250 254 253 240 232 228 224 225 228 226 224 224 225 226 227 227 225 218 208 204 211 218 218 217 216 214 211 211 214 217 218 220 220 218 215 205 195 190 179 167 176 194 188 184 192 194 196 197 196 196 191 186
300 294 289 283 270 258 254 241 230 235 247 252 253 250 243 240 237 231 227 229 231 229 228 228 226 225 222 219 219 216 207 209 220 223 223 221 218 216 218 222 223 222 224 223 219 215 208 202 196 181 169 169 183 190 191 191 198 208 202 191 196 196 190
317 307 302 288 268 259 256 243 238 243 252 260 255 246 241 241 239 238 236 231 228 228 228 227 224 221 218 216 218 218 212 209 217 221 222 221 222 222 222 224 222 217 220 222 219 216 213 208 203 191 181 179 177 184 197 196 203 214 205 192 194 197 195
319 305 295 280 267 265 257 242 240 243 243 252 254 246 243 240 231 232 238 234 227 226 227 226 225 221 219 219 218 216 216 216 217 218 219 220 222 223 222 222 220 217 219 221 219 219 218 213 208 202 197 198 195 187 192 199 205 208 205 200 196 194 197
299 285 281 277 270 265 253 239 236 237 239 247 250 247 249 246 235 230 234 232 225 223 224 223 224 223 221 220 218 219 217 215 215 216 216 219 219 220 221 220 218 219 221 221 219 221 222 217 211 209 208 209 211 208 201 199 201 198 198 201 199 193 195
305 290 288 288 281 270 259 248 239 235 239 243 244 246 247 246 242 236 233 229 222 220 221 221 222 224 224 220 217 218 215 210 215 216 214 217 218 216 217 216 213 214 216 218 219 221 222 219 214 213 213 212 214 218 219 219 206 190 192 198 198 195 197
327 319 308 298 286 275 269 261 248 239 236 235 239 244 241 240 240 235 229 226 222 219 217 218 221 221 221 220 213 210 210 210 214 217 216 220 221 215 215 214 212 211 211 211 213 217 219 218 217 214 214 214 215 218 222 229 225 183 185 197 192 195 204
338 336 326 308 293 280 271 264 254 246 239 234 238 243 238 235 237 232 225 223 223 220 215 214 218 218 218 222 216 206 205 209 210 209 213 219 220 217 215 213 210 211 212 207 203 205 211 215 216 215 215 215 215 216 216 223 228 195 184 197 190 194 208
345 344 337 314 298 288 278 269 254 244 240 235 235 242 242 236 234 230 223 221 221 220 217 214 214 215 215 219 218 207 205 212 211 204 203 207 209 211 211 208 207 210 210 205 198 198 205 209 210 212 213 214 213 214 214 215 221 209 187 193 193 196 208
349 347 340 320 305 294 282 277 262 245 240 237 233 238 242 236 230 227 223 224 224 221 218 216 213 212 210 211 215 213 208 211 210 204 202 201 203 208 208 204 206 208 204 199 195 199 206 207 206 208 212 213 211 211 212 212 216 213 195 187 192 197 206
349 346 341 328 315 302 284 274 270 259 248 240 232 233 240 237 228 224 222 225 227 223 218 215 212 210 209 208 211 215 213 209 208 210 211 208 206 209 208 204 205 206 200 194 195 199 203 204 207 210 210 211 211 210 210 210 212 213 206 195 190 193 204
348 345 342 333 321 309 296 281 273 267 258 247 234 225 230 232 226 223 222 224 226 223 217 214 209 206 205 205 208 215 217 213 213 215 215 213 212 212 210 207 206 206 202 199 199 200 200 201 204 208 209 210 210 209 210 210 209 209 211 206 193 193 203
349 345 341 336 327 316 307 295 283 272 264 259 251 236 227 225 222 220 220 221 223 222 217 213 208 203 202 204 209 214 215 215 216 216 215 215 215 216 215 209 207 208 207 204 203 201 200 200 201 205 208 209 209 208 208 208 207 207 213 213 199 196 203
350 347 342 337 330 322 313 303 291 280 273 269 264 253 238 229 225 222 218 217 220 220 218 214 209 205 203 205 208 210 210 214 217 218 219 219 218 219 216 210 210 212 211 209 207 204 202 200 202 208 209 208 208 207 205 206 206 207 212 216 210 200 201
351 348 345 342 336 329 319 308 296 285 281 276 266 255 243 235 233 228 220 215 218 220 217 214 210 206 204 206 208 209 210 214 218 219 222 220 217 218 216 211 213 215 215 215 213 211 211 207 204 208 211 212 211 208 205 202 202 207 212 215 214 204 194
350 348 347 349 347 341 329 316 305 291 285 283 274 260 247 240 237 234 226 217 217 219 217 214 210 204 203 204 206 208 211 215 217 216 213 209 208 215 216 212 214 216 217 218 217 218 220 218 215 213 212 213 211 207 206 200 198 206 211 213 215 203 191
351 349 348 349 350 349 341 328 317 302 289 286 280 267 251 241 236 234 230 220 215 217 217 215 211 205 201 202 203 207 211 213 214 212 208 204 201 206 210 209 212 215 218 219 217 216 219 221 223 222 221 221 214 206 203 202 204 208 209 214 214 194 185
352 352 350 347 349 353 349 340 329 314 299 291 284 268 249 241 235 231 230 224 218 218 217 216 213 207 203 202 203 205 208 210 211 212 211 208 202 201 205 207 210 212 215 216 215 215 214 212 214 218 223 226 223 215 209 208 210 211 212 217 207 181 193
354 354 353 350 350 354 354 350 341 327 312 302 289 268 249 241 236 231 230 227 223 221 216 213 212 208 204 203 203 205 207 209 212 214 212 209 207 205 205 204 204 205 207 209 209 210 209 204 203 209 212 214 217 219 219 218 217 215 214 213 195 179 198
357 355 355 353 352 355 357 356 351 341 328 315 298 275 256 245 237 235 234 230 225 221 217 213 212 208 205 203 203 205 207 209 212 215 213 207 204 202 200 198 196 196 197 199 202 205 205 201 200 204 209 210 213 218 222 225 225 222 219 214 202 195 204
1 359 357 356 356 358 358 359 359 353 344 334 322 297 266 246 237 235 234 230 226 220 216 214 211 206 204 204 202 202 205 209 211 212 211 207 202 199 198 195 192 191 191 193 197 200 200 197 195 197 202 207 212 217 222 226 228 226 222 215 208 210 214
3 2 1 0 1 2 2 1 3 5 2 357 352 340 296 245 234 230 225 223 223 218 213 211 207 203 202 202 201 200 204 207 206 207 207 203 198 196 195 192 190 188 188 189 192 195 196 193 189 186 186 187 195 207 215 223 226 224 219 213 209 218 222
6 6 5 5 6 6 7 7 6 8 13 16 16 10 6 338 231 217 209 211 214 212 208 205 202 200 199 199 200 199 200 201 199 199 199 194 191 190 187 184 184 184 183 183 183 186 191 187 178 170 162 151 146 146 147 166 194 202 201 195 188 192 193
11 11 10 11 12 11 12 13 13 15 20 27 33 35 36 42 55 139 176 187 191 193 197 195 191 192 194 196 197 194 191 190 187 185 183 182 181 180 178 177 179 179 178 176 173 176 182 179 167 157 146 134 125 118 113 114 122 133 144 149 147 144 141
18 18 17 17 16 17 18 19 21 24 28 32 37 44 53 61 65 78 104 123 128 130 140 156 165 171 179 188 192 190 184 179 174 172 171 171 171 171 172 173 175 175 173 169 165 165 168 166 157 148 141 133 125 119 118 119 119 120 123 127 128 128 128
26 26 26 25 24 23 25 28 32 36 39 41 41 45 55 63 65 66 77 92 103 102 100 111 138 155 165 174 179 181 181 174 166 162 161 162 163 165 167 169 172 173 170 164 160 157 158 160 157 152 149 142 132 127 128 129 127 125 124 123 122 122 121
38 35 34 34 34 34 33 36 41 44 46 48 48 47 50 56 60 57 60 76 88 90 88 94 110 134 153 160 162 167 173 171 164 158 155 155 155 156 159 164 169 171 168 165 163 163 166 175 174 166 160 153 143 138 138 137 134 135 132 126 122 118 114
47 46 44 42 42 42 40 40 44 47 49 50 51 49 46 49 56 53 50 63 75 77 78 83 89 101 126 143 150 156 158 157 156 154 149 146 145 145 148 154 160 168 172 172 173 175 179 183 179 169 164 159 152 147 143 138 135 133 128 121 116 110 105
45 46 45 45 45 45 42 42 45 47 50 51 52 51 45 43 50 52 47 54 65 70 71 76 81 83 97 124 141 147 141 136 141 144 138 130 127 127 130 133 139 153 166 170 172 173 172 172 170 167 163 158 152 147 141 135 131 126 120 113 108 103 99
40 43 43 44 45 45 43 42 42 43 45 47 50 50 47 42 44 48 47 48 57 64 67 71 75 77 83 100 120 131 131 128 131 132 125 117 113 112 113 114 118 129 144 150 152 153 154 155 155 153 151 148 146 144 140 135 129 123 115 110 105 99 95
39 42 44 45 44 45 45 43 40 39 38 41 44 46 46 45 44 45 48 49 51 59 66 69 71 75 79 88 98 106 113 117 121 119 112 107 105 105 105 106 109 115 123 128 132 133 133 134 134 134 137 140 141 141 139 135 131 125 117 110 104 98 95
Height
811 810 809 809 809 809 811 811 811 811 809 810 813 815 814 814 815 816 818 821 823 825 827 830 832 834 836 837 838 841 844 845 845 845 845 847 848 849 850 851 852 852 853 854 854 854 854 856 858 860 860 862 862 863 864 864 865 866 867 867 867 868 869
810 809 808 808 808 808 809 809 809 808 806 807 812 815 815 815 815 815 817 819 821 824 825 827 829 832 834 835 835 837 840 842 843 843 843 845 846 847 848 850 851 852 853 853 854 853 852 852 855 857 858 861 861 862 863 864 864 865 866 866 867 868 868
808 808 808 807 807 807 807 807 807 807 806 808 810 813 814 814 815 815 816 817 819 822 823 824 826 829 832 834 834 835 838 840 841 841 842 843 844 845 846 847 849 850 851 852 852 853 852 851 852 853 856 858 859 860 862 863 864 864 865 866 866 867 868
807 807 806 805 805 805 806 806 806 807 807 808 810 812 813 815 816 816 816 816 818 820 822 823 824 826 829 831 833 834 836 837 838 839 840 841 842 843 844 845 847 848 849 849 850 851 851 851 850 852 855 856 857 859 861 862 863 863 864 865 866 867 867
806 805 805 804 804 804 804 804 804 806 807 808 810 812 813 815 816 816 816 816 817 819 820 821 822 824 826 829 831 832 833 835 836 837 838 839 840 841 842 843 845 846 847 848 849 850 850 850 849 850 853 855 856 858 860 861 862 862 863 864 865 866 867
805 804 804 803 804 804 804 804 804 805 807 808 809 811 812 813 814 815 816 816 818 818 818 819 820 822 824 826 827 829 830 832 833 835 836 837 838 839 840 842 843 844 846 847 848 849 849 849 849 849 851 854 855 856 859 860 861 862 863 863 865 865 866
803 803 803 802 803 804 805 804 803 802 803 803 805 806 808 809 810 812 813 815 817 817 816 817 818 820 821 823 825 826 827 829 830 831 833 835 836 837 838 840 841 843 844 845 846 847 848 848 848 849 851 854 855 855 857 859 859 860 861 862 863 864 865
802 801 801 801 802 803 803 803 801 799 798 799 801 802 804 806 807 809 810 811 814 815 815 816 817 818 820 821 822 823 824 827 828 829 831 833 834 835 836 838 840 842 843 844 845 846 846 847 847 848 850 852 854 855 855 857 858 858 859 861 862 863 864
800 800 800 800 800 801 802 801 799 796 795 797 798 800 801 803 805 807 808 809 810 812 814 815 816 817 818 819 820 821 822 824 826 828 829 830 832 833 835 837 839 840 841 842 843 844 845 845 846 847 848 849 851 853 854 855 856 856 857 859 860 861 862
799 798 798 798 798 799 800 800 798 796 795 795 796 798 799 799 800 802 805 808 808 809 811 814 815 815 816 816 817 819 820 821 823 826 828 828 830 832 833 835 837 838 839 840 841 842 843 843 845 846 847 847 847 848 851 852 853 853 854 856 858 859 860
797 796 796 796 796 797 798 797 797 795 795 794 795 796 797 797 797 798 801 805 806 806 808 811 813 814 815 815 815 817 818 820 821 824 825 826 829 831 832 833 835 836 837 838 839 840 841 842 843 844 845 846 846 846 847 848 848 850 852 854 855 856 858
795 794 794 794 795 795 796 796 795 794 793 793 794 794 795 796 797 798 799 802 804 804 805 806 809 810 812 813 814 815 817 818 819 821 822 824 827 829 830 831 833 834 835 836 837 838 839 840 841 843 844 845 845 846 846 845 846 847 850 851 853 855 856
794 794 793 793 793 793 794 794 794 793 792 792 792 792 793 794 795 796 798 800 801 802 802 804 805 806 808 811 812 813 815 816 817 819 820 822 824 826 827 828 829 830 832 833 835 836 837 838 840 841 842 843 844 845 846 845 845 846 848 849 851 853 854
793 793 792 791 791 791 791 792 792 792 791 790 790 790 791 792 793 794 796 797 798 799 800 801 802 804 807 810 811 811 812 814 815 817 818 820 822 824 825 825 826 828 829 831 832 834 835 836 838 839 840 842 843 844 845 845 844 845 847 848 850 852 853
792 791 790 790 789 789 789 789 789 789 789 788 788 788 789 790 791 792 794 795 796 796 797 798 799 801 804 809 810 810 810 811 813 815 817 818 820 821 822 823 824 825 827 828 830 831 833 834 836 837 839 840 841 842 843 843 843 844 845 847 849 850 851
791 790 789 788 788 787 787 787 787 786 786 786 785 784 785 786 788 790 791 792 793 793 794 795 797 798 800 804 808 809 809 809 811 813 814 816 818 819 820 821 823 824 825 826 828 829 830 832 834 835 837 838 839 840 841 842 842 843 844 846 848 849 850
789 787 787 786 786 785 785 785 785 785 784 784 784 783 783 783 784 787 788 789 790 791 792 793 794 795 797 799 803 806 806 807 809 810 812 813 815 816 818 819 821 822 823 825 826 827 828 829 831 833 834 836 837 838 839 840 841 842 843 845 846 848 849
788 786 785 784 784 783 783 783 783 783 782 781 782 782 782 783 783 785 786 787 788 789 790 791 791 792 794 796 799 802 804 805 806 808 809 811 812 814 816 817 819 820 822 823 824 825 826 827 829 830 832 834 835 836 837 838 840 841 842 843 844 846 847
789 787 785 783 782 782 781 781 780 780 779 779 780 781 781 781 781 782 783 784 785 786 788 789 789 790 792 794 796 799 801 803 804 806 808 809 812 813 814 816 817 818 819 820 821 822 823 825 826 828 830 831 833 834 835 836 838 839 841 842 843 844 845
790 788 786 784 782 780 779 779 778 777 777 777 777 778 779 779 779 780 781 782 782 783 785 787 787 789 790 792 794 796 798 801 802 804 806 807 810 812 813 814 815 816 817 818 819 820 821 823 824 825 827 829 831 832 833 834 836 837 839 840 841 842 844
790 788 786 784 781 779 778 777 776 775 775 774 775 775 777 777 777 778 778 779 780 781 782 784 785 787 788 790 792 794 796 798 800 802 804 805 808 810 811 812 813 814 815 816 817 818 819 821 822 824 825 827 829 830 831 833 834 835 837 838 839 841 842
792 789 787 784 781 778 776 775 774 773 773 773 773 773 774 775 775 776 776 776 777 778 780 781 782 784 786 787 790 792 794 796 799 801 803 804 806 808 809 810 811 812 814 815 815 816 817 819 820 822 824 825 827 828 829 831 832 833 834 835 837 838 839
793 790 787 784 781 778 775 773 772 772 771 771 772 772 772 773 773 773 774 775 774 775 777 779 780 782 783 785 787 790 792 795 797 799 800 802 804 805 807 809 809 810 812 813 814 815 816 817 819 821 822 823 825 826 828 828 829 830 831 833 834 835 837
793 790 787 784 781 778 775 772 771 770 770 770 770 770 770 771 771 771 772 772 772 772 774 776 779 780 782 783 785 787 790 793 795 797 798 800 802 803 805 806 807 808 810 811 812 813 814 815 817 818 820 821 823 825 826 826 827 828 829 830 831 833 837
794 791 788 784 781 778 775 772 770 769 768 768 768 768 768 768 768 768 769 770 770 771 772 774 777 779 780 782 783 785 788 791 793 795 796 798 799 801 803 804 805 807 808 810 811 812 813 814 815 816 818 819 821 822 824 825 825 826 827 828 829 831 834
796 792 789 785 782 779 776 772 770 768 767 767 766 766 766 766 766 766 768 769 769 769 771 773 775 777 779 780 782 784 787 789 791 793 794 796 797 799 801 803 804 806 807 809 810 811 812 813 813 815 816 817 819 820 821 822 823 825 825 826 828 830 831
797 794 791 787 784 781 777 774 772 770 768 767 766 765 765 764 763 764 766 768 768 769 770 771 774 775 777 778 780 782 785 787 790 791 792 794 796 797 799 801 803 804 806 807 809 809 810 811 812 813 815 816 817 818 820 821 822 823 824 825 827 828 829
799 796 793 790 787 783 780 777 774 772 770 768 767 766 765 764 763 762 764 766 768 769 768 769 772 774 775 777 779 781 783 786 788 790 791 793 794 796 798 800 802 803 805 806 807 808 809 809 811 812 814 815 816 817 818 819 820 822 823 825 826 827 828
802 799 796 793 790 786 783 780 777 775 773 771 769 768 766 766 765 764 764 765 767 768 767 768 770 772 773 775 777 779 782 784 786 788 790 792 793 795 797 799 801 802 804 805 806 807 808 808 810 811 813 814 816 817 818 819 819 820 822 823 825 826 827
805 803 800 796 793 790 787 784 781 779 777 775 772 771 769 769 768 766 765 765 766 767 767 768 769 771 773 774 776 778 780 782 785 787 789 791 793 795 797 799 800 802 803 804 806 807 807 808 809 811 812 814 815 816 818 820 820 821 822 823 824 826 827
809 806 804 801 798 795 792 789 786 783 781 779 777 775 774 772 771 770 768 766 766 767 767 768 769 770 772 774 776 777 778 781 784 786 788 790 792 794 796 798 800 801 803 804 805 807 808 808 809 811 812 814 815 817 819 821 821 822 824 824 825 827 828
812 810 808 805 802 800 797 794 791 788 786 783 782 780 778 775 775 775 773 769 767 767 768 769 770 771 772 774 776 777 778 780 783 786 788 790 792 794 796 798 800 801 802 804 805 807 809 810 811 811 812 813 815 817 820 821 822 823 824 826 827 828 830
815 813 811 809 807 804 801 799 796 793 790 788 786 784 783 780 778 779 778 773 768 767 769 771 771 772 774 775 777 778 779 779 781 784 787 789 792 794 796 797 800 802 803 804 805 807 809 811 812 812 813 813 815 817 820 821 823 824 825 826 828 830 831
818 816 815 813 810 808 806 803 800 797 795 792 789 788 788 786 783 783 783 777 769 768 771 773 774 775 776 778 780 781 781 781 781 783 786 789 791 794 796 798 800 802 803 804 805 807 809 810 811 812 813 814 815 817 819 822 824 825 827 828 830 831 833
821 819 817 815 813 811 809 807 804 801 798 796 793 791 791 791 788 788 787 779 771 771 776 778 777 778 780 782 784 785 785 785 784 784 786 790 793 795 797 799 801 803 805 805 806 808 809 810 811 812 813 814 816 818 820 822 825 827 828 830 831 833 834
824 822 820 818 815 813 812 810 807 805 802 800 797 795 795 795 793 790 786 780 776 779 782 782 780 782 785 787 789 790 789 789 789 788 788 792 796 798 800 803 805 807 807 807 808 809 810 811 812 813 814 816 817 819 821 823 825 827 828 830 832 833 835
827 825 823 821 819 816 814 812 810 808 806 804 802 800 799 797 795 791 788 787 788 789 788 786 786 788 791 793 793 793 793 793 794 793 792 796 800 802 804 806 808 810 811 811 810 811 811 812 813 814 816 818 819 821 822 823 825 826 828 830 832 834 835